Date String (YYYY-MM-DD hh:mm:ss) UTC,Instrument flags,Ambient pressure (hPa),Sample flow (lpm),Bypass flow (lpm),Sample temperature (°C),Ambient temperature (°C),ASC tube jacket temperature (°C),LED temperature (°C),Box temperature (°C),Sample RH (%),Span deviation,Mass concentration (μg/m³),Mass concentration (μg/m³),Mass concentration (μg/m³)
DateTimeUTC,F1_M11,P_M11,Q1_M11,Q2_M11,T1_M11,T2_M11,T3_M11,T4_M11,T5_M11,U1_M11,ZSPAN_M11,X0_M11,X2_M11,X1_M11
2022-05-05 21:00:00,,0822.9,5.00,0.00,28.4,27.7,00.0,37.1,30.2,16.8,0000.0,0008.85,0004.25,0003.42
2022-05-05 21:01:00,,0823.0,5.01,0.00,28.4,27.7,00.0,37.2,30.2,16.8,0000.0,0009.28,0004.28,0003.43
2022-05-05 21:02:00,,0822.9,5.00,0.00,28.4,27.7,00.0,37.2,30.2,16.8,0000.0,0009.21,0004.25,0003.43
2022-05-05 21:03:00,,0822.9,5.00,0.00,28.4,27.8,00.0,37.2,30.3,16.8,0000.0,0008.60,0004.25,0003.42
2022-05-05 21:04:00,,0822.8,5.00,0.00,28.4,27.8,00.0,37.2,30.3,16.7,0000.0,0008.51,0004.27,0003.42
2022-05-05 21:05:00,,0822.7,5.00,0.00,28.4,27.8,00.0,37.2,30.3,16.5,0000.0,0008.43,0004.23,0003.41
2022-05-05 21:06:00,,0822.7,5.01,0.00,28.4,27.8,00.0,37.2,30.3,16.6,0000.0,0008.60,0004.24,0003.40
2022-05-05 21:07:00,,0822.7,4.99,0.00,28.4,27.8,00.0,37.2,30.3,16.9,0000.0,0008.72,0004.25,0003.39
2022-05-05 21:08:00,,0822.7,5.01,0.00,28.4,27.8,00.0,37.3,30.3,16.6,0000.0,0009.10,0004.29,0003.39
2022-05-05 21:09:00,,0822.8,5.00,0.00,28.5,27.8,00.0,37.3,30.3,16.6,0000.0,0009.34,0004.34,0003.39
2022-05-05 21:10:00,,0822.9,4.98,0.00,28.5,27.9,00.0,37.3,30.4,16.4,0000.0,0009.48,0004.35,0003.37
2022-05-05 21:11:00,,0822.6,5.01,0.00,28.5,27.9,00.0,37.3,30.4,16.4,0000.0,0009.35,0004.32,0003.36
2022-05-05 21:12:00,,0822.7,5.00,0.00,28.5,27.9,00.0,37.3,30.4,16.3,0000.0,0009.08,0004.32,0003.35
2022-05-05 21:13:00,,0822.7,4.99,0.00,28.5,27.9,00.0,37.3,30.4,15.8,0000.0,0009.17,0004.34,0003.35
2022-05-05 21:14:00,,0822.7,4.99,0.00,28.5,27.9,00.0,37.3,30.4,15.4,0000.0,0009.21,0004.35,0003.35
2022-05-05 21:15:00,,0822.7,5.01,0.00,28.6,27.9,00.0,37.4,30.4,14.7,0000.0,0009.06,0004.31,0003.35
2022-05-05 21:16:00,,0822.7,4.99,0.00,28.6,28.0,00.0,37.4,30.5,15.0,0000.0,0009.08,0004.33,0003.37
2022-05-05 21:17:00,,0822.7,5.01,0.00,28.6,28.0,00.0,37.4,30.5,15.2,0000.0,0008.96,0004.33,0003.39
2022-05-05 21:18:00,,0822.7,4.99,0.00,28.6,28.0,00.0,37.4,30.5,15.8,0000.0,0008.84,0004.30,0003.41
2022-05-05 21:19:00,,0822.7,4.99,0.00,28.6,28.0,00.0,37.4,30.5,15.9,0000.0,0008.64,0004.29,0003.42
2022-05-05 21:20:00,,0822.6,5.01,0.00,28.7,28.0,00.0,37.4,30.6,15.5,0000.0,0008.58,0004.32,0003.43
2022-05-05 21:21:00,,0822.6,4.99,0.00,28.7,28.1,00.0,37.5,30.6,15.9,0000.0,0008.42,0004.29,0003.43
2022-05-05 21:22:00,,0822.6,4.99,0.00,28.7,28.1,00.0,37.5,30.6,16.7,0000.0,0008.49,0004.28,0003.44
2022-05-05 21:23:00,,0822.6,5.00,0.00,28.7,28.1,00.0,37.5,30.6,16.9,0000.0,0009.18,0004.27,0003.44
2022-05-05 21:24:00,,0822.6,5.01,0.00,28.7,28.1,00.0,37.5,30.6,17.6,0000.0,0009.22,0004.29,0003.44
2022-05-05 21:25:00,,0822.6,5.00,0.00,28.7,28.1,00.0,37.5,30.6,16.1,0000.0,0009.36,0004.33,0003.45
2022-05-05 21:26:00,,0822.6,5.00,0.00,28.8,28.1,00.0,37.6,30.6,16.1,0000.0,0009.62,0004.35,0003.47
2022-05-05 21:27:00,,0822.6,5.01,0.00,28.8,28.1,00.0,37.6,30.7,16.8,0000.0,0009.66,0004.33,0003.45
2022-05-05 21:28:00,,0822.6,5.00,0.00,28.8,28.2,00.0,37.6,30.7,15.9,0000.0,0009.69,0004.37,0003.45
2022-05-05 21:29:00,,0822.6,4.99,0.00,28.8,28.2,00.0,37.6,30.7,14.7,0000.0,0009.68,0004.38,0003.45
2022-05-05 21:30:00,,0822.5,4.99,0.00,28.8,28.2,00.0,37.6,30.7,15.1,0000.0,0009.65,0004.38,0003.45
2022-05-05 21:31:00,,0822.5,5.01,0.00,28.8,28.2,00.0,37.6,30.7,14.7,0000.0,0009.61,0004.36,0003.46
2022-05-05 21:32:00,,0822.5,4.99,0.00,28.8,28.2,00.0,37.6,30.7,14.8,0000.0,0009.73,0004.42,0003.48
2022-05-05 21:33:00,,0822.5,5.00,0.00,28.8,28.2,00.0,37.7,30.7,15.5,0000.0,0009.74,0004.45,0003.48
2022-05-05 21:34:00,,0822.5,5.00,0.00,28.9,28.2,00.0,37.7,30.7,16.1,0000.0,0009.21,0004.49,0003.49
2022-05-05 21:35:00,,0822.5,5.00,0.00,28.9,28.2,00.0,37.7,30.8,16.3,0000.0,0009.28,0004.50,0003.51
2022-05-05 21:36:00,,0822.5,5.00,0.00,28.9,28.2,00.0,37.7,30.8,16.2,0000.0,0009.19,0004.46,0003.52
2022-05-05 21:37:00,,0822.5,5.00,0.00,28.9,28.3,00.0,37.7,30.8,15.7,0000.0,0009.00,0004.47,0003.52
2022-05-05 21:38:00,,0822.6,4.99,0.00,28.9,28.3,00.0,37.7,30.8,15.7,0000.0,0009.01,0004.53,0003.53
2022-05-05 21:39:00,,0822.6,5.00,0.00,29.0,28.3,00.0,37.7,30.8,16.0,0000.0,0008.91,0004.49,0003.53
2022-05-05 21:40:00,,0822.5,5.01,0.00,29.0,28.3,00.0,37.8,30.8,15.7,0000.0,0008.94,0004.50,0003.53
2022-05-05 21:41:00,,0822.5,4.98,0.00,29.0,28.3,00.0,37.8,30.9,15.3,0000.0,0008.89,0004.50,0003.54
2022-05-05 21:42:00,,0822.5,5.01,0.00,29.0,28.3,00.0,37.8,30.9,15.5,0000.0,0008.86,0004.50,0003.55
2022-05-05 21:43:00,,0822.5,5.01,0.00,29.0,28.4,00.0,37.8,30.9,15.1,0000.0,0008.82,0004.51,0003.55
2022-05-05 21:44:00,,0822.5,5.01,0.00,29.0,28.4,00.0,37.8,30.9,15.5,0000.0,0008.81,0004.52,0003.55
2022-05-05 21:45:00,,0822.5,4.98,0.00,29.0,28.4,00.0,37.8,30.9,15.1,0000.0,0008.61,0004.51,0003.54
2022-05-05 21:46:00,,0822.4,5.00,0.00,29.1,28.4,00.0,37.9,30.9,14.5,0000.0,0008.57,0004.51,0003.53
2022-05-05 21:47:00,,0822.5,5.01,0.00,29.1,28.4,00.0,37.9,30.9,14.2,0000.0,0008.81,0004.57,0003.53
2022-05-05 21:48:00,,0822.4,5.00,0.00,29.1,28.4,00.0,37.9,30.9,13.7,0000.0,0008.99,0004.59,0003.51
2022-05-05 21:49:00,,0822.4,5.00,0.00,29.1,28.4,00.0,37.9,31.0,14.0,0000.0,0008.82,0004.52,0003.51
2022-05-05 21:50:00,,0822.4,5.00,0.00,29.1,28.5,00.0,37.9,31.0,13.2,0000.0,0008.85,0004.54,0003.51
2022-05-05 21:51:00,,0822.4,5.01,0.00,29.1,28.5,00.0,37.9,31.0,13.2,0000.0,0009.08,0004.58,0003.50
2022-05-05 21:52:00,,0822.5,4.99,0.00,29.2,28.5,00.0,37.9,31.0,13.3,0000.0,0009.06,0004.55,0003.48
2022-05-05 21:53:00,,0822.4,5.01,0.00,29.2,28.5,00.0,38.0,31.0,13.4,0000.0,0009.05,0004.52,0003.46
2022-05-05 21:54:00,,0822.4,5.00,0.00,29.2,28.6,00.0,38.0,31.1,13.4,0000.0,0008.99,0004.49,0003.45
2022-05-05 21:55:00,,0822.4,4.99,0.00,29.2,28.6,00.0,38.0,31.1,13.5,0000.0,0008.95,0004.47,0003.45
2022-05-05 21:56:00,,0822.3,5.00,0.00,29.2,28.6,00.0,38.0,31.1,13.2,0000.0,0008.91,0004.48,0003.44
2022-05-05 21:57:00,,0822.3,5.00,0.00,29.2,28.6,00.0,38.0,31.1,13.8,0000.0,0008.94,0004.49,0003.43
2022-05-05 21:58:00,,0822.3,5.00,0.00,29.3,28.6,00.0,38.0,31.1,13.5,0000.0,0008.67,0004.44,0003.42
2022-05-05 21:59:00,,0822.3,5.00,0.00,29.3,28.7,00.0,38.1,31.2,13.6,0000.0,0008.60,0004.43,0003.42
